Hourly Weather Chandyr

Today, 12 June, Saturday

Time Temperature Precipitation Wind Pressure Humidity
00:00 +26°C° 0 mm 3 mps 700 mmHg 23%
01:00 +26°C° 0 mm 3 mps 700 mmHg 24%
02:00 +25°C° 0 mm 3 mps 700 mmHg 25%
03:00 +25°C° 0 mm 3 mps 700 mmHg 25%
04:00 +24°C° 0 mm 2 mps 700 mmHg 26%
05:00 +26°C° 0 mm 2 mps 701 mmHg 24%
06:00 +28°C° 0 mm 2 mps 701 mmHg 22%
07:00 +30°C° 0 mm 2 mps 702 mmHg 20%
08:00 +31°C° 0 mm 2 mps 702 mmHg 18%
09:00 +32°C° 0 mm 2 mps 702 mmHg 17%
10:00 +35°C° 0 mm 2 mps 702 mmHg 14%
11:00 +36°C° 0 mm 2 mps 702 mmHg 13%
12:00 +37°C° 0 mm 3 mps 702 mmHg 12%
13:00 +38°C° 0 mm 4 mps 702 mmHg 11%
14:00 +38°C° 0 mm 4 mps 702 mmHg 11%
15:00 +37°C° 0 mm 5 mps 701 mmHg 12%
16:00 +37°C° 0 mm 5 mps 701 mmHg 12%
17:00 +35°C° 0 mm 5 mps 701 mmHg 13%
18:00 +34°C° 0 mm 4 mps 701 mmHg 15%
19:00 +31°C° 0 mm 3 mps 701 mmHg 17%
20:00 +30°C° 0 mm 4 mps 702 mmHg 19%
21:00 +29°C° 0 mm 4 mps 702 mmHg 20%
22:00 +28°C° 0 mm 4 mps 702 mmHg 22%
23:00 +27°C° 0 mm 4 mps 702 mmHg 25%

Tomorrow, 13 June, Sunday

Time Temperature Precipitation Wind Pressure Humidity
00:00 +27°C° 0 mm 4 mps 702 mmHg 28%
01:00 +26°C° 0 mm 3 mps 702 mmHg 30%
02:00 +25°C° 0 mm 3 mps 702 mmHg 32%
03:00 +25°C° 0 mm 3 mps 702 mmHg 33%
04:00 +24°C° 0 mm 2 mps 702 mmHg 35%
05:00 +26°C° 0 mm 3 mps 703 mmHg 31%
06:00 +28°C° 0 mm 3 mps 703 mmHg 28%
07:00 +30°C° 0 mm 4 mps 704 mmHg 25%
08:00 +32°C° 0 mm 4 mps 704 mmHg 22%
09:00 +33°C° 0 mm 5 mps 704 mmHg 20%
10:00 +35°C° 0 mm 6 mps 704 mmHg 17%
11:00 +35°C° 0 mm 6 mps 703 mmHg 16%
12:00 +36°C° 0 mm 6 mps 703 mmHg 15%
13:00 +36°C° 0 mm 6 mps 703 mmHg 14%
14:00 +36°C° 0 mm 6 mps 703 mmHg 13%
15:00 +35°C° 0 mm 7 mps 703 mmHg 12%
16:00 +35°C° 0 mm 7 mps 703 mmHg 11%
17:00 +34°C° 0 mm 7 mps 703 mmHg 12%
18:00 +32°C° 0 mm 6 mps 702 mmHg 13%
19:00 +29°C° 0 mm 5 mps 702 mmHg 13%
20:00 +28°C° 0 mm 6 mps 702 mmHg 13%
21:00 +28°C° 0 mm 6 mps 702 mmHg 13%
22:00 +27°C° 0 mm 7 mps 702 mmHg 13%
23:00 +24°C° 0 mm 6 mps 702 mmHg 14%

Day after tomorrow, 14 June, Monday

Time Temperature Precipitation Wind Pressure Humidity
00:00 +23°C° 0 mm 5 mps 702 mmHg 15%
01:00 +22°C° 0 mm 4 mps 702 mmHg 15%
02:00 +21°C° 0 mm 4 mps 701 mmHg 16%
03:00 +20°C° 0 mm 4 mps 701 mmHg 17%
04:00 +20°C° 0 mm 3 mps 701 mmHg 18%
05:00 +21°C° 0 mm 4 mps 701 mmHg 17%
06:00 +23°C° 0 mm 4 mps 702 mmHg 16%
07:00 +25°C° 0 mm 4 mps 702 mmHg 15%
08:00 +27°C° 0 mm 4 mps 702 mmHg 13%
09:00 +29°C° 0 mm 4 mps 702 mmHg 11%
10:00 +32°C° 0 mm 4 mps 702 mmHg 8%
11:00 +33°C° 0 mm 5 mps 702 mmHg 8%
12:00 +34°C° 0 mm 5 mps 701 mmHg 7%
13:00 +35°C° 0 mm 6 mps 701 mmHg 7%
14:00 +35°C° 0 mm 6 mps 701 mmHg 7%
15:00 +34°C° 0 mm 7 mps 701 mmHg 7%
16:00 +34°C° 0 mm 7 mps 701 mmHg 8%
17:00 +33°C° 0 mm 6 mps 701 mmHg 9%
18:00 +30°C° 0 mm 6 mps 701 mmHg 11%
19:00 +28°C° 0 mm 5 mps 701 mmHg 12%
20:00 +28°C° 0 mm 6 mps 701 mmHg 12%
21:00 +27°C° 0 mm 7 mps 701 mmHg 13%
22:00 +26°C° 0 mm 7 mps 701 mmHg 13%
23:00 +23°C° 0 mm 7 mps 701 mmHg 15%

15 June, Tuesday

Time Temperature Precipitation Wind Pressure Humidity
00:00 +22°C° 0 mm 6 mps 701 mmHg 17%
01:00 +20°C° 0 mm 5 mps 700 mmHg 19%
02:00 +20°C° 0 mm 4 mps 700 mmHg 20%
03:00 +19°C° 0 mm 4 mps 701 mmHg 22%
04:00 +18°C° 0 mm 3 mps 701 mmHg 23%
05:00 +20°C° 0 mm 3 mps 701 mmHg 21%
06:00 +21°C° 0 mm 3 mps 702 mmHg 19%
07:00 +23°C° 0 mm 4 mps 702 mmHg 17%
08:00 +26°C° 0 mm 4 mps 702 mmHg 15%
09:00 +28°C° 0 mm 4 mps 702 mmHg 12%
10:00 +32°C° 0 mm 4 mps 702 mmHg 9%
11:00 +33°C° 0 mm 5 mps 702 mmHg 8%
12:00 +34°C° 0 mm 5 mps 702 mmHg 8%
13:00 +35°C° 0 mm 6 mps 701 mmHg 7%
14:00 +35°C° 0 mm 6 mps 701 mmHg 7%
15:00 +35°C° 0 mm 6 mps 701 mmHg 7%
16:00 +35°C° 0 mm 6 mps 701 mmHg 7%
17:00 +33°C° 0 mm 6 mps 701 mmHg 8%
18:00 +30°C° 0 mm 6 mps 701 mmHg 10%
19:00 +28°C° 0 mm 5 mps 701 mmHg 12%
20:00 +27°C° 0 mm 5 mps 700 mmHg 14%
21:00 +26°C° 0 mm 4 mps 700 mmHg 15%
22:00 +24°C° 0 mm 3 mps 700 mmHg 17%
23:00 +24°C° 0 mm 3 mps 700 mmHg 18%

16 June, Wednesday

Time Temperature Precipitation Wind Pressure Humidity
00:00 +22°C° 0 mm 4 mps 700 mmHg 20%
01:00 +21°C° 0 mm 4 mps 700 mmHg 21%
02:00 +21°C° 0 mm 3 mps 700 mmHg 23%
03:00 +20°C° 0 mm 3 mps 700 mmHg 25%
04:00 +19°C° 0 mm 3 mps 700 mmHg 27%
05:00 +21°C° 0 mm 3 mps 700 mmHg 25%
06:00 +24°C° 0 mm 3 mps 701 mmHg 22%
07:00 +26°C° 0 mm 3 mps 701 mmHg 20%
08:00 +28°C° 0 mm 3 mps 701 mmHg 17%
09:00 +30°C° 0 mm 3 mps 701 mmHg 14%
10:00 +33°C° 0 mm 3 mps 701 mmHg 10%
11:00 +35°C° 0 mm 3 mps 701 mmHg 9%
12:00 +36°C° 0 mm 3 mps 701 mmHg 8%
13:00 +37°C° 0 mm 3 mps 701 mmHg 7%
14:00 +37°C° 0 mm 4 mps 701 mmHg 7%
15:00 +37°C° 0 mm 4 mps 701 mmHg 7%
16:00 +37°C° 0 mm 5 mps 701 mmHg 7%
17:00 +35°C° 0 mm 5 mps 701 mmHg 8%
18:00 +33°C° 0 mm 5 mps 701 mmHg 9%
19:00 +30°C° 0 mm 4 mps 701 mmHg 10%
20:00 +29°C° 0 mm 4 mps 701 mmHg 10%
21:00 +28°C° 0 mm 3 mps 701 mmHg 11%
22:00 +27°C° 0 mm 3 mps 701 mmHg 12%
23:00 +26°C° 0 mm 3 mps 701 mmHg 14%

17 June, Thursday

Time Temperature Precipitation Wind Pressure Humidity
00:00 +25°C° 0 mm 3 mps 701 mmHg 16%
01:00 +24°C° 0 mm 3 mps 701 mmHg 17%
02:00 +24°C° 0 mm 3 mps 701 mmHg 19%
03:00 +22°C° 0 mm 3 mps 701 mmHg 20%
04:00 +22°C° 0 mm 3 mps 701 mmHg 22%
05:00 +25°C° 0 mm 4 mps 702 mmHg 20%
06:00 +27°C° 0 mm 4 mps 702 mmHg 19%
07:00 +29°C° 0 mm 4 mps 702 mmHg 17%
08:00 +32°C° 0 mm 4 mps 702 mmHg 15%
09:00 +34°C° 0 mm 5 mps 702 mmHg 13%
10:00 +35°C° 0 mm 5 mps 703 mmHg 11%
11:00 +36°C° 0 mm 5 mps 702 mmHg 10%
12:00 +38°C° 0 mm 6 mps 702 mmHg 8%
13:00 +39°C° 0 mm 6 mps 702 mmHg 7%
14:00 +39°C° 0 mm 6 mps 702 mmHg 7%
15:00 +38°C° 0 mm 6 mps 702 mmHg 6%
16:00 +38°C° 0 mm 6 mps 702 mmHg 6%
17:00 +35°C° 0 mm 6 mps 702 mmHg 7%
18:00 +33°C° 0 mm 5 mps 702 mmHg 8%
19:00 +30°C° 0 mm 4 mps 702 mmHg 10%
20:00 +29°C° 0 mm 4 mps 702 mmHg 11%
21:00 +28°C° 0 mm 4 mps 702 mmHg 11%
22:00 +27°C° 0 mm 4 mps 702 mmHg 12%
23:00 +26°C° 0 mm 3 mps 701 mmHg 13%
Show more

We Need Your Consent

Meteoprog and our Service Providers may store and access personal data such as cookies, device identifiers or other similar technologies on your device and process such data to personalise content and ads, as well as provide social media features and to analyse the traffic.

  • Store and/or access information on your device

    Cookies, device identifiers or other information can be stored or accessed on your device for the purposes indicated above.

  • Personalised ads and content, ad and content measurement, audience insights, and products development

    Ads and content can be personalised based on a profile. More data can be added to better personalise ads and content. Ad and content performance can be measured. Insights about the audience who saw the ads and content can be derived. Such data can be used to develop or improve user’s experience, systems and software.

By clicking ‘I Agree’ you will allow the use of indicated cookies, device identifiers, web beacons or other similar technologies. Your settings can be changed in the browser on your device.

For certain purposes, legitimate interests may be relied on, rather than consent. You can read more about this in our Privacy and Cookie Policy.